[[{"header":{"parameterUnit":"m.s-1","parameterCategory":1,"la1":30.2991,"la2":30.254,"lo1":-89.0895,"lo2":-89.0444,"dy":0.0017,"dx":0.0017,"nx":28,"ny":28,"refTime":"2023-08-17T09:00:00:Z","depth":0,"parameterNumber":2,"parameterNumberName":"U-component_of_WINDS"},"data":[0,0,0,0,0,0,0,0,0,0,0,0,0,0,0,0,0,0,0,0,0,0,0,0,0,0,0,0,0,0,0,0,0,0,0,0,0,0,0,0,0,0,0,0,0,0,0,0,0,0,0,0,0,0,0,0,0,0,3.9021,3.9021,0,3.906,3.9061,3.9061,3.8979,3.8976,3.8974,3.8971,3.9011,3.9014,3.9018,0,0,0,0,0,0,0,0,0,0,0,0,0,3.8872,3.8875,3.9021,3.9021,3.9022,3.906,3.9061,3.9061,3.898,3.8976,3.8973,3.897,3.901,3.9014,3.9018,0,0,0,0,0,0,0,0,0,0,0,0,0,3.8927,3.8876,3.9021,3.8986,3.8983,3.906,3.9061,3.9061,3.898,3.8976,3.8972,3.8968,3.9008,3.9013,3.9019,3.9131,0,0,3.9035,3.9037,0,0,0,0,0,0,0,0,3.8924,3.8932,3.899,3.8988,3.8985,3.9011,3.9023,3.9085,3.8981,3.8981,3.8971,3.8967,3.9014,3.9019,3.9035,3.9133,3.9135,3.9035,3.9039,3.9041,3.9042,0,0,0,0,0,0,0,3.892,3.893,3.9036,3.8991,3.8988,3.8967,3.897,3.9034,3.902,3.8981,3.8975,3.8981,3.9012,3.903,3.9035,3.9136,3.9035,3.904,3.9043,3.9045,3.9324,3.9328,0,0,0,0,0,0,3.8921,3.8927,3.9035,3.9037,3.8944,3.8973,3.8977,3.9007,3.9019,3.9017,3.8984,3.8977,3.9023,3.9029,3.9036,3.9165,3.9041,3.9046,3.9049,3.932,3.9325,3.9329,0,0,0,0,0,0,3.8918,3.8931,3.9033,3.8981,3.8992,3.898,3.9014,3.9009,3.9027,3.9021,3.9018,3.9005,3.902,3.9029,3.9107,3.9165,3.9048,3.9053,3.9315,3.9321,3.9327,3.9426,0,0,0,0,0,0,3.8914,3.8931,3.8974,3.8982,3.8995,3.9105,3.9018,3.9013,3.9037,3.9027,3.904,3.9038,3.9017,3.91,3.9113,3.917,3.9057,3.9309,3.9318,3.9325,3.9417,3.9435,3.945,0,0,0,0,0,3.8909,3.9002,3.8977,3.899,3.905,3.9109,3.9116,3.909,3.9042,3.9084,3.908,3.9038,3.9158,3.9109,3.9122,3.9183,3.9305,3.9315,3.9324,3.941,3.9432,3.945,0,0,0,0,0,0,3.9001,3.9002,3.8975,3.9073,3.9091,3.9095,3.9148,3.9114,3.9147,3.9137,3.9103,3.9106,3.9191,3.9195,3.914,3.929,3.9223,3.9236,3.9284,3.9304,3.932,3.9315,3.9062,0,0,0,0,0,3.9033,3.9081,3.9079,3.9166,3.9177,3.9161,3.9186,3.9164,3.9182,3.9189,3.919,3.9209,3.925,3.9278,3.9316,3.9419,3.9418,3.9467,3.9483,3.9496,3.9507,3.9557,3.9577,3.936,3.936,3.936,0,0,3.9099,3.9105,3.9138,3.9185,3.9196,3.9245,3.9168,3.9225,3.926,3.9198,3.927,3.9273,3.9291,3.9381,3.9421,3.9387,3.9567,3.9509,3.9519,3.9522,3.9569,3.9589,3.9608,3.9367,3.9366,3.9365,0,0,3.9243,3.9255,3.9325,3.9338,3.9357,3.9345,3.9362,3.9371,3.9369,3.9442,3.9395,3.9437,3.951,3.9523,3.954,3.9687,3.9647,3.97,3.9784,3.9833,3.985,3.9865,3.9913,3.9932,3.9711,3.9712,3.9712,0,3.9322,3.9395,3.9366,3.9425,3.9445,3.9391,3.9461,3.9475,3.9505,3.9519,3.9482,3.9569,3.9578,3.9668,3.9704,3.9721,3.9737,3.9697,3.985,3.9865,3.9878,3.9924,3.9943,3.9717,3.9717,3.9716,3.9716,0,3.9489,3.954,3.9596,3.9624,3.9651,3.9716,3.9695,3.9726,3.9702,3.9694,3.9767,3.9776,3.9812,3.9833,3.9811,3.9919,3.9897,3.9856,3.9787,3.9905,3.9947,3.9965,3.9726,3.9724,3.9722,3.9721,0,0,3.9692,3.9702,3.9723,3.9733,3.9748,3.9787,3.9848,3.9883,3.9908,3.9931,3.9979,4.0041,4.0001,4.002,3.9999,4.0043,4.0153,3.9995,3.9995,4.0021,4.0269,4.0297,4.0318,4.0129,4.0132,4.0135,4.0266,0,3.9831,3.9935,3.991,4.0012,4.0056,4.0004,4.0057,4.0071,4.0065,4.0102,4.0095,4.0138,4.0085,4.0095,4.0137,4.0131,4.0202,4.0122,4.017,4.0172,4.0163,4.034,4.0371,4.0494,4.0282,4.0285,4.0287,0,4.0007,4.0034,4.014,4.0144,4.0162,4.021,4.0238,4.0275,4.0289,4.0281,4.0301,4.0271,4.0329,4.0262,4.034,4.0286,4.0305,4.0305,4.0309,4.0309,4.0234,4.0341,4.0533,4.055,4.0314,4.0312,4.031,0,4.0138,4.0202,4.0272,4.0284,4.0292,4.0326,4.0331,4.0341,4.0363,4.0388,4.0401,4.0434,4.045,4.0476,4.0453,4.0408,4.0533,4.0466,4.0526,4.0526,4.0552,4.055,4.0745,4.0571,4.0571,4.0571,4.057,0,4.0294,4.036,4.0331,4.0374,4.0445,4.0416,4.0487,4.0486,4.0495,4.0536,4.0495,4.0533,4.0504,4.054,4.0524,4.0588,4.0597,4.0591,4.0585,4.0592,4.0592,4.0601,4.059,4.0575,4.0574,4.0573,4.0573,0,4.0452,4.0435,4.0508,4.0509,4.051,4.0563,4.0563,4.0602,4.0593,4.0644,4.0655,4.064,4.068,4.0662,4.0704,4.0693,4.0775,4.076,4.0769,4.0764,4.0823,4.0816,4.1027,4.1051,4.0866,4.0868,4.087,0,4.055,4.0599,4.0604,4.0628,4.0635,4.0675,4.0696,4.0669,4.0693,4.0711,4.0747,4.0783,4.081,4.0876,4.0869,4.0901,4.0883,4.0955,4.0887,4.0892,4.0879,4.0874,4.0877,4.0967,4.097,4.0971,4.0973,0,4.0725,4.0713,4.0745,4.0774,4.08,4.0822,4.084,4.0862,4.0835,4.0863,4.0903,4.0924,4.0966,4.1001,4.1028,4.1032,4.0997,4.0995,4.1009,4.1015,4.1017,4.1012,4.0801,4.0989,4.0987,4.0986,4.0985,4.0985,4.0853,4.0892,4.0901,4.0937,4.0947,4.0964,4.0999,4.0994,4.1026,4.1057,4.104,4.1085,4.1096,4.1128,4.1137,4.1171,4.1142,4.1165,4.117,4.1174,4.118,4.1015,4.1176,4.1176,4.1175,4.1175,4.1175,0,4.1021,4.1024,4.1058,4.1082,4.111,4.1076,4.1093,4.1118,4.1158,4.1171,4.1198,4.1242,4.1275,4.127,4.13,4.1329,4.1313,4.1337,4.1332,4.1333,4.1206,4.1188,4.1349,4.1349,4.1349,4.1349,4.1349,4.1349,4.1112,4.1175,4.1165,4.1232,4.1234,4.1277,4.1289,4.1304,4.1313,4.1364,4.1391,4.1387,4.1392,4.1422,4.145,4.1448,4.1459,4.1488,4.1479,4.136,4.1343,4.1326,4.1309,4.1492,4.1492,4.1602,4.1603,4.1604]},{"header":{"parameterUnit":"m.s-1","parameterCategory":1,"la1":30.2991,"la2":30.254,"lo1":-89.0895,"lo2":-89.0444,"dy":0.0017,"dx":0.0017,"nx":28,"ny":28,"refTime":"2023-08-17T09:00:00:Z","depth":0,"parameterNumber":3,"parameterNumberName":"V-component_of_WINDS"},"data":[0,0,0,0,0,0,0,0,0,0,0,0,0,0,0,0,0,0,0,0,0,0,0,0,0,0,0,0,0,0,0,0,0,0,0,0,0,0,0,0,0,0,0,0,0,0,0,0,0,0,0,0,0,0,0,0,0,0,2.0779,2.078,0,2.0903,2.0905,2.0906,2.0927,2.0926,2.0924,2.0923,2.1052,2.1056,2.106,0,0,0,0,0,0,0,0,0,0,0,0,0,2.0557,2.0561,2.0779,2.078,2.0782,2.0903,2.0905,2.0907,2.0927,2.0925,2.0924,2.0923,2.105,2.1055,2.1061,0,0,0,0,0,0,0,0,0,0,0,0,0,2.0665,2.0563,2.0778,2.0807,2.081,2.0903,2.0905,2.0907,2.0927,2.0925,2.0924,2.0922,2.1048,2.1055,2.1061,2.1135,0,0,2.1082,2.1084,0,0,0,0,0,0,0,0,2.0659,2.0673,2.0801,2.0805,2.0809,2.0898,2.0874,2.0983,2.0927,2.0883,2.0923,2.0921,2.1002,2.1012,2.1039,2.1141,2.1146,2.1082,2.1086,2.1089,2.1091,0,0,0,0,0,0,0,2.0651,2.0668,2.0828,2.0803,2.0808,2.0813,2.0826,2.0895,2.095,2.0887,2.0888,2.0903,2.1004,2.1033,2.1042,2.1148,2.1082,2.1088,2.1092,2.1095,2.1314,2.1316,0,0,0,0,0,0,2.0639,2.0661,2.0824,2.0832,2.0728,2.0818,2.0833,2.0871,2.0949,2.096,2.0904,2.0903,2.1022,2.1034,2.1047,2.1137,2.1089,2.1095,2.1099,2.1313,2.1315,2.1317,0,0,0,0,0,0,2.0634,2.0653,2.0819,2.0747,2.0769,2.0823,2.0866,2.0874,2.0903,2.0962,2.0972,2.0923,2.1021,2.1037,2.1112,2.1141,2.1098,2.1104,2.131,2.1313,2.1316,2.1318,0,0,0,0,0,0,2.0628,2.0651,2.068,2.0748,2.0772,2.0883,2.0868,2.0878,2.0915,2.0915,2.0983,2.0993,2.1021,2.1102,2.1119,2.115,2.1109,2.1308,2.1312,2.1315,2.1315,2.132,2.1324,0,0,0,0,0,2.062,2.0676,2.0682,2.0701,2.081,2.0885,2.0899,2.093,2.0917,2.0946,2.0984,2.0991,2.1136,2.111,2.1129,2.1162,2.1306,2.1311,2.1315,2.1313,2.1319,2.1324,0,0,0,0,0,0,2.0612,2.0686,2.0692,2.0773,2.0822,2.0888,2.0926,2.0936,2.099,2.0988,2.1024,2.1039,2.1112,2.1145,2.1115,2.1236,2.122,2.1228,2.1212,2.1219,2.1223,2.1213,2.1115,0,0,0,0,0,2.0619,2.0674,2.0736,2.08,2.0825,2.0871,2.0905,2.0924,2.0977,2.0998,2.1041,2.1092,2.1149,2.1186,2.1241,2.132,2.1334,2.1352,2.1357,2.136,2.1367,2.1409,2.1417,2.1331,2.1331,2.133,0,0,2.0635,2.0682,2.0715,2.08,2.0841,2.0896,2.0888,2.0948,2.0989,2.1007,2.108,2.1113,2.1172,2.1249,2.1285,2.1278,2.1394,2.1365,2.1368,2.1373,2.1414,2.1422,2.1429,2.1333,2.1333,2.1332,0,0,2.0693,2.0735,2.0792,2.0833,2.0894,2.0924,2.0937,2.1001,2.1024,2.1098,2.1112,2.1161,2.1259,2.13,2.1333,2.1404,2.1412,2.1421,2.1445,2.1486,2.1493,2.1499,2.1523,2.1531,2.1427,2.1427,2.1427,0,2.0705,2.0789,2.0821,2.0879,2.0915,2.0933,2.0992,2.1029,2.1106,2.113,2.1122,2.1243,2.1284,2.137,2.1387,2.1414,2.143,2.1413,2.1489,2.1496,2.1502,2.1525,2.1534,2.1428,2.1428,2.1428,2.1428,0,2.0801,2.0859,2.0898,2.097,2.1011,2.1069,2.1108,2.1146,2.1161,2.1192,2.1266,2.1315,2.138,2.1402,2.1419,2.149,2.1484,2.1482,2.1466,2.151,2.1533,2.1542,2.1429,2.1429,2.1428,2.1428,0,0,2.0858,2.0945,2.0959,2.0991,2.1059,2.1104,2.1162,2.1226,2.1256,2.1308,2.1357,2.1438,2.1436,2.1474,2.1495,2.1531,2.1581,2.1524,2.1526,2.1532,2.1662,2.1662,2.1672,2.1587,2.1589,2.1591,2.1656,0,2.0923,2.1027,2.1056,2.1144,2.1196,2.1214,2.1264,2.1311,2.134,2.1389,2.1422,2.1478,2.1472,2.1495,2.1531,2.1568,2.1608,2.1563,2.1633,2.1635,2.1617,2.1684,2.1685,2.1745,2.1665,2.1667,2.1668,0,2.1013,2.1065,2.1157,2.1216,2.124,2.1285,2.1344,2.1391,2.1443,2.1462,2.1504,2.1521,2.1581,2.1562,2.1645,2.1614,2.1644,2.1666,2.1669,2.1676,2.1654,2.1692,2.1765,2.1773,2.1682,2.1681,2.168,0,2.1043,2.1137,2.1204,2.1231,2.1302,2.1333,2.1364,2.1415,2.145,2.1502,2.1525,2.1584,2.1615,2.166,2.1691,2.1675,2.1771,2.1755,2.1788,2.1787,2.1808,2.1806,2.1885,2.1828,2.1828,2.1828,2.1827,0,2.1112,2.1168,2.1218,2.126,2.1322,2.1354,2.1415,2.1447,2.1492,2.1539,2.1558,2.1601,2.1641,2.169,2.1716,2.1779,2.1794,2.181,2.1816,2.1809,2.1806,2.1828,2.1825,2.183,2.1829,2.1829,2.1829,0,2.1158,2.1194,2.1267,2.1328,2.1344,2.1388,2.1439,2.1479,2.1509,2.1568,2.1584,2.1631,2.1689,2.1725,2.18,2.1817,2.1887,2.1892,2.1869,2.1871,2.1902,2.1898,2.1997,2.2011,2.1946,2.1946,2.1947,0,2.1199,2.1242,2.1306,2.1339,2.137,2.1423,2.1458,2.1492,2.1528,2.159,2.1622,2.1682,2.1731,2.1823,2.1864,2.192,2.1926,2.1957,2.1935,2.1925,2.1925,2.1922,2.1926,2.196,2.1961,2.1962,2.1962,0,2.1268,2.1283,2.1334,2.139,2.1432,2.1479,2.1525,2.155,2.1591,2.1631,2.1691,2.1729,2.1804,2.1862,2.1922,2.1953,2.1964,2.1968,2.1979,2.1971,2.1955,2.1963,2.1878,2.1966,2.1966,2.1965,2.1965,2.1965,2.1312,2.135,2.1401,2.1456,2.1494,2.1536,2.1577,2.1611,2.1661,2.1724,2.174,2.1802,2.1852,2.1934,2.1966,2.2015,2.201,2.2026,2.203,2.2033,2.2032,2.1948,2.2026,2.2026,2.2026,2.2026,2.2026,0,2.1381,2.1414,2.1465,2.1528,2.1571,2.1577,2.1628,2.1663,2.1717,2.1763,2.1811,2.1878,2.1934,2.1978,2.2036,2.2066,2.2072,2.208,2.2078,2.2085,2.2034,2.2018,2.2074,2.2074,2.2074,2.2074,2.2074,2.2074,2.1422,2.1486,2.1507,2.159,2.1623,2.1683,2.1711,2.175,2.1786,2.1861,2.1907,2.1935,2.198,2.2041,2.2092,2.2103,2.2123,2.213,2.2142,2.2094,2.2088,2.2083,2.2069,2.2134,2.2134,2.2189,2.2189,2.219]}]]